Regional Weather Roundup
Issued by NWS Upton, NY

Current Version | Previous Version | Graphics & Text | Print | Product List | Glossary Off
Versions: 1 2 3 4 5 6 7 8 9 10 11 12 13 14 15 16 17 18 19 20 21 22 23 24 25 26 27 28 29 30 31 32 33 34 35 36 37 38 39 40 41 42 43 44 45 46 47 48 49 50

000
ASUS41 KOKX 291805
RWROKX

REGIONAL WEATHER ROUNDUP
NATIONAL WEATHER SERVICE NEW YORK NY
200 PM EDT MON AUG 29 2016

NOTE: "FAIR" INDICATES FEW OR NO CLOUDS BELOW 12,000 FEET WITH NO
SIGNIFICANT WEATHER AND/OR OBSTRUCTIONS TO VISIBILITY.

NYZ071-072-176-178-NJZ106-104-291900-
NEW YORK CITY METRO AREA

CITY           SKY/WX    TMP DP  RH WIND       PRES   REMARKS
Central Park   SUNNY     90  58  33 NW7       30.11F
LaGuardia APRT MOSUNNY   91  59  33 NW9       30.07F HX  90
Kennedy INTL   MOSUNNY   90  64  42 N8        30.08F HX  91
Newark/Liberty MOSUNNY   92  59  33 N14G20    30.08F HX  91
Bronx Bot Gard   N/A    N/A N/A N/A NW5       30.09F
Wall St Helipt CLEAR     93  61  33 W7        30.08F HX  93
Teterboro      SUNNY     89  61  38 N10       30.07F
$$

NYZ177-179-078>081-291900-
LONG ISLAND NEW YORK

CITY           SKY/WX    TMP DP  RH WIND       PRES   REMARKS
Farmingdale    SUNNY     91  62  37 W13       30.08F HX  91
MacArthur/ISP  MOSUNNY   89  66  46 NW10G22   30.06F HX  91
Shirley        MOSUNNY   90  66  45 N14       30.07F HX  92
Riverhead      NOT AVBL
Westhampton    SUNNY     88  64  44 W16G23    30.08F
Southampton      N/A     86  70  58 N10       30.03S HX  90
Bridgehampton    N/A     86  72  62 S2        30.06S HX  92
East Hampton   FAIR      85  66  54 NW7       30.05F
Montauk          N/A     83  69  62 W9        30.06F
$$

NYZ052-065-067-291900-
HUDSON VALLEY

CITY           SKY/WX    TMP DP  RH WIND       PRES   REMARKS
White Plains   MOSUNNY   88  59  37 NW13      30.09F
Newburgh       MOSUNNY   86  63  45 N7        30.13F
Montgomery     SUNNY     87  61  41 N9G16     30.11F
Poughkeepsie   MOSUNNY   85  58  39 W8G18     30.09F
Albany         MOSUNNY   83  59  44 NW17      30.12S
$$

NJZ001-105-106-008-010-013-015-019>022-104-291900-
NEW JERSEY

CITY           SKY/WX    TMP DP  RH WIND       PRES   REMARKS
Newark/Liberty MOSUNNY   92  59  33 N14G20    30.08F HX  91
Teterboro      SUNNY     89  61  38 N10       30.07F
Caldwell       SUNNY     88  62  41 NW10G17   30.11F
Morristown     MOSUNNY   88  57  35 N5G14     30.11F
Somerville     SUNNY     91  60  35 NW9       30.09F HX  90
Linden         FAIR      92  58  32 N7        30.10F HX  90
Sussex         SUNNY     84  62  47 W9G16     30.14F
Abdover          N/A     84  62  47 NW5       30.14F
Trenton        MOSUNNY   90  68  48 VRB7      30.10F HX  94
Millville      MOSUNNY   88  72  58 W7        30.12F HX  94
Atlantic City  MOSUNNY   90  67  46 W8        30.10F HX  93
Wrightstown    MOSUNNY   90  69  50 W7        30.07F HX  94
Toms River     MOSUNNY   89  69  51 VRB3      30.10F HX  93
Belmar         MOSUNNY   91  68  46 NW10      30.10F HX  95
$$

PAZ047>061-062-071-291900-
EASTERN PENNSYLVANIA

CITY           SKY/WX    TMP DP  RH WIND       PRES   REMARKS
Philadelphia   PTSUNNY   91  67  44 W10G18    30.11F HX  94
Allentown      SUNNY     88  59  37 VRB7      30.14F
Scranton       MOSUNNY   83  60  45 NW10      30.19F
$$

CTZ002-004>006-009-010-012-RIZ004-006-007-MAZ004-011-015-291900-
SOUTHERN NEW ENGLAND
 IN CT

CITY           SKY/WX    TMP DP  RH WIND       PRES   REMARKS
Bradley INTL   MOSUNNY   87  56  34 NW13      30.07S
Hartford       MOSUNNY   91  58  32 N15G21    30.06S HX  90
Danbury        SUNNY     84  58  40 NW12      30.11F
Wtrbury/Oxford MOSUNNY   82  57  42 N15G23    30.14S
Bridgeport     SUNNY     91  54  28 N16       30.06F
Meriden        SUNNY     90  57  32 NW14      30.07S
New Haven      MOSUNNY   88  57  34 NW9       30.06F
Chester        FAIR      86  57  37 N8G17     30.07F
Groton         SUNNY     91  63  39 N12G20    30.03F HX  92
Wilimantic     MOSUNNY   87  61  41 NW14G21   30.07S

 IN RI

CITY           SKY/WX    TMP DP  RH WIND       PRES   REMARKS
Providence     MOSUNNY   89  60  37 W16       30.04R
Block Island   SUNNY     83  69  62 W12       30.05F
Westerly       SUNNY     90  58  33 NW13G21   30.05S
 IN MA

CITY           SKY/WX    TMP DP  RH WIND       PRES   REMARKS
Boston         MOSUNNY   88  57  34 NW16G24   30.01S
Worcester      SUNNY     82  55  39 NW14G22   30.09S
Westfield      MOSUNNY   88  54  31 NW16G24   30.07S
Provincetown   SUNNY     83  67  58 NW10      30.02S
Nantucket      PTSUNNY   79  68  69 W18G25    30.03S
$$

ANZ330-335-338-340-345-350-353-355-291900-
COASTAL MARINE OBSERVATIONS


STATION/POSITION TIME  SKY/WX   TEMP    WIND        PRES    VSBY  WAVE
                                AIR SEA DIR/SP/G                  HT/PER
                 (UTC)          (F)     (DEG/KT/KT) (MB)    (MI)  (FT/S)
NY HARB ENTRANCE 1650            79 77  270/  6/  8 1019.0          3/14
20S FIRE ISLAND  1650            76 75  260/ 10/ 10 1018.8          3/14
GREAT SOUTH BAY  1700            80 80  230/  8/ 10   N/A
23 SSW MONTAUK P 1650            75 76  250/ 12/ 14 1018.6          3/13
15 E BARNEGAT LI 1700               77                N/A           3/13
HUDSON CANYON    1650            77 79              1019.6          3/13
KINGS POINT      1700            83 76              1018.9
EXECUTION ROCKS  1700            84     320/ 12/ 16   N/A
CENTRAL LI SOUND 1700            77 76  240/ 10/ 12   N/A           1/ 3
EASTERN LI SOUND 1700            74 71  250/ 10/ 14   N/A
ROBBINS REEF     1712            86     330/  8/ 11 1018.3
$$


>>>>>>>>>>>>>>>>>>>>>>>>>>>> KEY <<<<<<<<<<<<<<<<<<<<<<<<<<<
>                                                          <
>     SKY/WX - Sky Condition/Present Weather               <
>     TMP    - Temperature in Fahrenheit                   <
>     DP     - Dew Point in Fahrenheit                     <
>     RH     - Relative Humidity in Percent                <
>     WIND   - Direction (from) and Speed in MPH           <
>     PRES   - Mean Sea Level Pressure (inches of Hg)      <
>     WCI    - Wind Chill Index                            <
>     VSB    - VISIBILITY IN MILES                         <
>     HX     - HEAT INDEX                                  <
>     TC     - TEMPERATURE IN CELSIUS                      <
>     VRB    - VARIABLE WIND DIRECTION                     <
>                                                          <
>>>>>>>>>>>>>>>>>>>>>>>>>>>> KEY <<<<<<<<<<<<<<<<<<<<<<<<<<<



USA.gov is the U.S. government's official web portal to all federal, state and local government web resources and services.